Location: La Pernelle
(49.6188°N, 1.2999°W)
Time: 16:06:27
(UTC+00:00)

Cosmos 1626 - Pass Details

Date: 29 October 2021
Orbit: 487 x 492 km, 82.5° (Epoch: 30 November)

Event Time Altitude Azimuth Distance (km) Brightness Sun altitude
Exits shadow 03:28:12 11° 35° (NE) 1,616 5.3 -32.7°
Drops below altitude 10° 03:28:21 11° 34° (NE) 1,667 5.3 -32.7°
Sets 03:30:47 0° 21° (NNE) 2,587 6.2 -32.3°
